Regional Weather Roundup
Issued by NWS

Home | Current Version | Previous Version | Graphics & Text | Print | Product List | Glossary On
Versions: 1 2 3 4 5 6 7 8 9 10 11 12 13 14 15 16 17 18 19 20 21 22 23 24 25 26 27 28 29 30 31 32 33 34 35 36 37 38 39 40 41 42 43 44 45 46 47 48 49 50
000
ASUS43 KIND 231659
RWRIN

WEATHER ROUNDUP FOR INDIANA
NATIONAL WEATHER SERVICE INDIANAPOLIS IN
100 PM EDT MON APR 23 2018

NOTE: "FAIR" INDICATES FEW OR NO CLOUDS BELOW 12,000 FEET WITH NO
SIGNIFICANT WEATHER AND/OR OBSTRUCTIONS TO VISIBILITY.

* - STATION DOES NOT REPORT WEATHER SUCH AS PRECIPITATION OR FOG.

+ - STATION NOT QUALITY CONTROLLED BY THE NATIONAL WEATHER SERVICE.
    USE DATA WITH CAUTION...ESPECIALLY DEWPOINT AND RELATIVE
    HUMIDITY OBSERVATIONS.

INZ001>003-010>013-019-020-231800-
NORTHWEST INDIANA

CITY           SKY/WX    TMP DP  RH WIND       PRES   REMARKS
GARY /AIRPORT/ PTSUNNY   50  34  53 N16       30.17S
KNOX *+        FAIR      64  39  39 E7        30.12F
MONTICELLO +   PTSUNNY   60  37  42 E6        30.12S
RENSSELAER +   PTSUNNY   64  23  20 NE10G21   30.11F

$$

LMZ046-743>745-231800-
SOUTHERN LAKE MICHIGAN

STATION/POSITION TIME  TEMP    WIND        PRES    WAVE
                       AIR SEA DIR/SP/G            HT
                 (UTC) (F)     (DEG/KT/KT) (MB)    (FT)
BURNS HARBOR     1640   42     360/  4/  6 1022.0F
MICHIGAN CITY    1630   42      10/  9/  9   N/A

$$

INZ004-005-014>016-021>024-231800-
NORTH CENTRAL INDIANA

CITY           SKY/WX    TMP DP  RH WIND       PRES   REMARKS
ELKHART        FAIR      66  39  37 NE5       30.15F
GOSHEN         FAIR      66  42  41 E6        30.14F
ROCHESTER +    FAIR      64  39  39 E8        30.13F
SOUTH BEND     FAIR      64  36  35 E10       30.16F
WARSAW +       FAIR      64  43  45 SE7       30.14F

$$

INZ006>009-017-018-025>027-231800-
NORTHEAST INDIANA

CITY           SKY/WX    TMP DP  RH WIND       PRES   REMARKS
FORT WAYNE     PTSUNNY   69  47  45 E9        30.14F

$$

INZ028-029-035-036-043>045-051>053-231800-
WEST CENTRAL INDIANA

CITY           SKY/WX    TMP DP  RH WIND       PRES   REMARKS
GREENCASTLE +  LGT RAIN  52  50  93 E9        30.09S
LAFAYETTE      FAIR      62  44  51 E9        30.10F
TERRE HAUTE    LGT RAIN  55  54  96 E10       30.06F FOG

$$

INZ030>032-037>040-046>048-054>057-064-065-231800-
CENTRAL INDIANA

CITY           SKY/WX    TMP DP  RH WIND       PRES   REMARKS
ANDERSON       CLOUDY    59  48  67 SE12G17   30.14R
COLUMBUS       LGT RAIN  52 N/A N/A E12       30.11S FOG
INDIANAPOLIS   LGT RAIN  54  52  93 E13       30.10F FOG
-EAGLE CREEK   LGT RAIN  56  50  80 E9        30.11S
KOKOMO +       FAIR      64  44  48 E10       30.13S
MT COMFORT *+  CLOUDY    52  52 100 SE9       30.13R
SHELBYVILLE    LGT RAIN  55  49  80 E13       30.11S
ZIONSVILLE +   LGT RAIN  55  49  79 SE12      30.12S

$$

INZ033-034-041-042-049-050-058-059-231800-
EAST CENTRAL INDIANA

CITY           SKY/WX    TMP DP  RH WIND       PRES   REMARKS
MUNCIE         CLOUDY    64  44  48 SE10      30.13R
RICHMOND +     LGT RAIN  54  52  94 SE12      30.16R

$$

INZ060-061-067>069-081>083-085>088-231800-
SOUTHWEST INDIANA

CITY           SKY/WX    TMP DP  RH WIND       PRES   REMARKS
EVANSVILLE     CLOUDY    60  56  86 E12       29.98S
HUNTINGBURG +  CLOUDY    61  55  81 E17       29.99F

$$

INZ062-063-066-070>080-084-089>092-231800-
SOUTH CENTRAL AND SOUTHEAST INDIANA

CITY           SKY/WX    TMP DP  RH WIND       PRES   REMARKS
BLOOMINGTON    RAIN      53  52  96 E12       30.06F FOG

$$





USA.gov is the U.S. government's official web portal to all federal, state and local government web resources and services.